Theta_e
309 309 309 309 307 307 309 308 320 319 314 309 304 309 313 314 316 313 315 316 316 321 322 322 322 324 325 324 326 323 318 319 325 327 323 323 323 326 320 325 328 320 321 324
309 308 308 308 307 308 308 307 311 319 315 316 313 312 315 315 316 314 316 317 321 320 321 322 323 324 323 322 324 327 323 322 325 325 323 325 328 328 322 319 320 325 327 327
309 309 310 308 307 309 310 312 324 317 310 310 316 319 319 319 317 315 315 315 316 318 319 319 320 322 324 324 328 335 325 319 323 325 325 325 328 328 327 325 327 327 329 334
310 310 310 309 307 309 313 314 320 316 320 319 322 321 320 321 322 317 316 317 316 317 318 319 320 327 328 326 328 325 319 323 322 322 322 325 327 328 330 329 328 333 331 335
309 309 309 309 307 307 314 316 317 314 315 317 321 318 321 320 321 317 318 318 321 316 317 318 328 329 329 330 326 326 320 325 326 327 330 330 333 332 335 335 334 334 333 338
309 309 309 308 308 307 307 309 313 314 314 318 322 321 322 322 320 321 319 325 326 326 328 325 325 324 323 324 324 324 324 322 323 326 326 327 330 331 339 346 344 342 333 340
309 309 309 309 308 307 306 308 309 313 315 318 321 320 321 321 320 321 324 323 326 327 323 322 320 320 321 322 322 319 320 320 321 323 323 329 326 340 341 343 344 342 343 344
308 308 309 309 309 308 307 307 309 310 313 315 316 318 318 315 316 319 320 322 320 315 320 321 321 321 322 324 325 323 316 318 322 324 323 324 330 338 336 341 340 343 339 338
308 308 309 310 309 308 306 308 310 309 312 311 316 317 316 315 315 316 318 318 315 317 317 321 324 325 325 325 324 321 316 316 321 321 324 327 325 334 335 334 342 338 337 337
308 309 309 310 309 308 306 307 310 311 313 311 315 315 315 315 315 315 315 316 318 318 318 320 321 322 322 325 326 324 326 327 323 323 328 338 335 334 334 337 335 336 338 336
309 309 309 310 308 306 307 307 309 311 311 312 314 314 317 315 313 315 314 316 316 320 320 316 317 319 319 324 324 329 328 332 336 330 334 343 330 331 335 333 332 335 332 336
307 310 311 308 306 307 307 307 309 307 308 311 315 316 316 316 316 314 312 315 314 319 322 322 323 328 319 321 326 322 325 327 334 335 335 328 327 328 329 328 325 326 327 329
306 308 309 308 307 308 308 306 307 308 307 311 313 317 321 319 317 315 314 310 313 312 316 317 318 319 315 319 320 323 322 324 332 329 330 327 325 324 323 322 325 325 325 328
305 306 307 308 308 308 308 307 307 307 306 314 317 320 318 319 319 317 316 312 310 311 313 314 316 320 315 318 319 320 321 323 326 326 327 326 324 323 324 324 325 328 330 329
306 307 308 309 310 309 306 306 307 307 311 315 315 316 319 320 318 318 318 313 311 313 316 316 318 316 320 318 318 321 321 323 326 327 322 322 323 323 324 326 328 331 333 331
307 308 310 311 312 308 307 313 314 310 309 313 319 315 316 321 318 317 312 312 313 314 315 316 317 317 318 320 321 321 322 321 321 324 321 321 322 324 325 328 331 330 330 328
309 310 314 314 314 308 306 316 315 312 310 314 317 318 317 319 318 316 316 317 316 317 317 318 318 318 317 318 321 325 324 323 322 320 320 324 324 325 324 329 331 331 331 330
310 315 316 316 313 310 313 316 312 312 310 314 318 320 317 319 318 319 315 317 316 317 317 317 319 317 318 323 318 323 324 322 322 321 320 320 320 322 324 326 329 330 328 325
311 314 312 312 311 314 316 317 315 313 317 319 319 322 324 316 319 319 320 317 321 316 320 318 319 319 323 319 324 325 323 323 322 320 319 320 324 324 324 325 327 328 326 325
312 314 315 317 314 312 313 315 314 314 314 312 315 314 320 316 320 323 322 321 322 322 320 318 320 320 319 320 322 322 321 319 319 321 322 322 323 324 324 324 325 326 325 324
310 306 309 312 313 313 313 318 319 318 322 316 316 315 313 312 323 323 321 324 322 326 323 322 321 326 325 320 319 317 316 317 318 318 320 319 320 322 323 324 324 325 325 323
307 307 307 308 311 313 319 321 321 324 325 321 321 321 315 316 318 321 321 327 324 328 321 327 330 329 322 320 320 320 317 318 318 318 319 320 320 321 322 323 323 324 324 323
309 309 312 314 315 314 322 323 320 322 322 326 326 326 324 320 318 320 323 327 325 321 324 327 327 325 323 322 321 321 320 320 320 321 321 322 321 323 323 323 324 324 322 323
313 318 314 320 324 320 318 320 321 322 327 326 325 326 327 325 326 325 327 324 325 328 330 330 326 323 322 321 321 321 321 320 320 320 321 322 321 321 323 323 323 322 321 322
315 315 316 318 318 320 321 319 322 324 321 319 319 318 322 323 328 325 326 327 329 327 329 325 324 321 322 321 320 319 320 321 321 322 321 322 323 322 322 323 323 322 320 321
314 314 316 315 315 317 317 317 319 320 320 322 322 321 322 326 326 327 327 328 328 326 327 327 324 324 321 321 319 320 321 321 321 321 322 322 321 320 320 321 321 320 318 320
315 313 311 313 313 313 314 317 319 320 321 322 324 326 326 321 326 328 325 327 326 326 328 326 324 323 320 318 320 321 322 320 320 320 320 320 320 320 318 316 318 318 320 321
Wind_Speed
28 31 33 32 37 43 20 7 2 2 17 4 1 3 5 3 3 2 4 3 8 6 7 6 5 5 4 5 2 6 7 5 6 13 6 3 4 5 5 5 5 2 4 5
27 30 33 32 33 31 10 2 3 2 5 2 2 4 4 3 4 5 4 4 5 1 6 4 3 1 3 6 4 0 6 0 2 8 6 4 2 2 4 5 3 3 4 4
26 28 31 31 32 28 3 2 2 4 3 0 4 3 7 5 3 7 6 7 6 4 5 2 6 3 1 5 5 7 7 3 6 6 7 4 3 2 2 6 4 3 5 5
24 27 29 32 31 20 2 2 1 2 2 2 2 2 4 6 4 4 2 4 7 9 7 5 4 1 2 4 8 4 4 2 2 5 6 2 4 6 3 5 4 5 3 7
23 25 27 30 31 18 4 2 3 4 2 4 3 4 1 5 3 5 7 6 8 6 6 8 7 5 2 2 5 3 3 3 1 3 0 4 4 4 6 6 3 5 5 3
23 23 25 26 29 21 7 6 3 3 3 4 1 2 3 6 8 7 10 6 5 5 6 6 6 4 4 6 7 2 1 4 3 4 4 4 4 2 8 6 5 1 3 1
23 23 23 22 22 21 8 3 3 2 3 1 3 4 5 8 6 4 6 5 3 1 5 3 4 4 1 5 6 6 7 5 4 4 3 3 5 7 16 16 7 7 7 4
22 22 21 20 19 19 13 4 0 2 3 3 6 4 5 9 6 5 3 4 3 5 5 4 5 5 6 5 2 4 5 5 3 5 5 1 4 5 3 4 2 3 4 4
21 21 20 19 19 19 17 2 2 1 2 4 1 3 3 3 4 7 5 5 6 5 4 4 4 4 4 4 8 5 4 2 5 3 6 9 4 2 6 6 2 3 3 1
21 20 19 19 18 18 17 4 2 2 2 4 2 4 3 2 1 2 4 8 8 3 2 3 3 4 3 3 3 5 5 3 4 3 3 2 3 7 5 5 6 4 6 5
21 20 19 19 17 17 16 5 4 3 2 6 6 4 3 3 1 1 4 4 4 4 4 2 3 3 4 1 3 2 3 2 1 2 4 1 5 3 6 5 2 3 4 5
21 20 20 18 16 15 13 4 3 10 5 6 9 21 26 20 15 2 2 3 2 3 3 0 2 2 1 3 3 2 2 4 4 2 5 5 4 6 1 4 3 2 3 6
22 21 20 19 18 15 8 9 11 4 2 5 3 6 6 13 30 26 3 3 3 1 3 3 2 1 3 2 4 2 2 3 5 4 4 2 4 3 4 4 4 2 2 4
22 22 22 21 18 16 9 7 5 4 2 2 6 9 9 5 7 25 31 6 2 4 3 2 2 1 2 3 2 3 3 3 6 2 2 1 4 2 4 5 5 5 3 6
24 24 23 19 18 16 13 13 11 11 1 3 5 20 10 7 8 21 25 12 2 1 1 2 3 2 1 1 2 2 1 6 4 5 7 6 3 1 2 5 2 4 5 2
26 25 22 18 18 12 5 2 1 10 9 0 4 6 6 10 3 15 9 6 3 3 4 3 3 3 3 1 2 5 4 3 7 5 5 6 7 4 3 5 4 3 5 1
28 26 20 16 13 8 4 2 3 13 1 1 5 5 5 6 2 1 2 2 2 3 2 3 3 2 3 3 3 6 3 1 6 8 9 5 4 4 4 6 6 5 3 4
29 23 19 16 7 6 5 3 8 16 5 1 2 4 5 5 1 1 1 2 1 1 3 1 2 1 2 2 5 6 5 5 5 6 4 7 6 5 6 8 6 4 4 5
24 18 7 2 1 1 5 5 2 7 2 1 1 2 4 5 2 1 2 2 1 1 3 3 4 1 3 6 8 10 8 7 9 6 7 7 7 7 6 6 4 1 4 5
16 5 3 2 2 12 6 1 2 2 1 1 3 1 4 2 3 2 1 1 1 2 4 2 2 4 3 4 3 6 7 8 8 7 5 5 4 6 5 5 4 4 5 5
8 7 2 9 12 1 2 1 1 1 2 3 4 5 2 2 1 3 1 1 1 1 4 3 2 3 3 5 7 5 6 6 5 5 4 7 7 7 6 4 5 4 6 5
12 12 10 6 3 2 0 3 2 4 4 2 3 4 4 4 1 1 3 1 1 4 0 1 2 2 1 5 6 5 5 7 6 5 5 6 7 7 6 5 4 4 8 11
1 2 2 1 1 1 4 3 2 2 2 2 1 1 0 4 3 1 2 1 4 2 1 3 4 3 4 5 4 4 3 6 5 4 2 5 6 9 8 6 6 6 9 10
2 1 5 4 3 4 3 2 3 3 0 2 2 2 3 2 4 2 1 3 1 1 2 5 3 7 7 5 3 4 3 4 4 2 2 5 6 5 7 8 7 6 7 8
2 1 4 5 3 3 1 2 1 2 2 1 2 3 1 1 1 3 2 2 3 4 4 3 2 5 5 5 3 4 4 2 1 2 1 4 5 5 8 9 8 5 7 7
3 4 3 3 1 2 3 3 3 1 3 1 3 2 1 1 2 2 5 2 3 3 2 1 3 5 5 4 5 4 3 2 1 3 4 7 6 5 7 7 4 3 6 6
4 4 3 3 3 4 3 2 3 2 3 3 3 3 4 2 2 3 1 2 3 3 2 3 7 6 5 5 5 4 4 4 4 4 5 5 3 3 4 2 3 6 5 3
Wind_Direction
348 349 350 352 354 348 355 349 16 71 155 60 45 173 202 255 281 25 293 211 215 218 197 200 181 191 174 325 183 139 201 159 237 242 255 274 206 151 131 111 277 169 157 279
348 350 350 352 356 356 322 18 268 129 326 135 283 284 283 242 264 245 224 255 214 275 193 152 177 277 122 333 23 329 185 9 40 347 357 4 130 149 125 106 78 197 127 258
349 351 351 352 356 351 158 64 24 332 55 99 122 11 292 274 269 256 199 239 208 170 197 304 174 176 12 0 42 47 79 120 151 183 216 178 269 306 180 130 117 190 218 167
349 351 352 353 359 359 349 28 327 188 268 304 11 124 306 291 294 260 262 294 224 187 198 159 181 209 336 39 341 49 90 116 197 255 252 191 239 244 207 164 172 152 225 158
350 353 356 356 1 6 22 41 31 350 290 318 352 75 260 278 290 235 264 218 265 195 184 186 188 142 169 192 1 83 356 199 122 302 261 232 214 172 115 66 63 121 161 84
352 353 356 359 4 14 21 358 351 107 306 357 47 224 310 282 321 261 236 263 120 104 182 175 173 181 174 164 152 187 100 126 74 271 351 348 333 349 109 96 22 140 124 322
353 353 355 360 6 11 346 323 339 49 276 296 217 303 312 277 287 249 324 23 80 318 93 88 58 48 355 198 200 164 161 133 133 217 29 231 284 72 110 99 59 49 70 57
348 351 352 356 358 358 346 286 261 100 284 239 290 292 261 297 302 333 297 326 303 319 50 62 27 345 6 321 297 281 177 131 184 167 180 244 155 200 199 122 36 354 94 52
347 348 349 353 354 355 357 309 259 155 103 251 341 302 292 302 322 334 303 316 312 64 81 80 138 203 221 292 326 83 78 130 150 144 161 195 228 85 352 140 106 161 137 169
344 343 346 349 351 352 349 266 287 255 221 265 202 225 272 303 348 259 307 330 346 35 80 96 156 230 213 231 220 306 331 8 185 150 118 297 328 309 322 161 198 171 177 188
342 340 341 343 346 352 355 296 68 360 252 275 223 237 241 340 108 151 294 9 336 21 61 123 206 174 236 358 255 213 188 135 50 89 92 129 358 17 110 200 185 170 194 205
345 339 335 336 340 343 347 298 248 310 207 254 272 260 255 246 231 119 310 208 247 217 81 232 119 247 36 125 272 343 2 177 145 115 174 228 318 107 144 133 132 181 192 218
342 343 339 336 334 330 318 292 313 307 290 296 314 239 268 259 234 223 176 276 215 25 172 163 188 269 128 151 247 315 355 129 113 72 285 153 100 106 136 173 166 210 226 157
337 338 334 330 326 319 297 264 249 297 259 292 281 328 300 257 258 202 208 229 35 91 71 102 138 197 164 211 209 175 217 68 129 73 193 31 21 52 53 52 53 83 121 178
334 333 330 326 321 317 304 272 264 226 130 261 284 310 293 302 227 199 208 215 145 142 57 86 238 239 120 354 74 271 179 167 139 201 194 141 201 321 90 90 71 158 165 228
331 330 326 319 315 312 316 321 206 184 178 285 310 300 293 313 292 176 177 178 154 129 152 213 255 251 104 114 185 264 276 181 159 160 158 139 154 166 175 127 149 162 190 223
331 328 318 307 305 282 205 194 128 162 179 193 308 314 274 305 122 54 102 112 145 136 163 210 207 275 98 120 170 233 251 231 109 128 117 94 176 158 146 154 155 136 103 243
331 325 316 302 279 283 298 359 223 216 282 130 285 277 331 348 345 222 89 128 54 324 194 62 202 33 90 241 245 175 171 141 103 131 128 140 132 137 140 139 141 138 212 243
332 327 338 67 114 19 350 329 79 171 216 235 225 259 274 352 354 288 19 88 140 280 195 228 116 246 217 222 177 175 185 175 160 138 121 143 143 148 134 124 141 164 294 295
338 340 317 10 57 320 291 230 26 17 328 64 232 244 271 27 1 318 4 31 210 181 243 81 137 240 262 248 175 158 159 142 143 119 135 142 158 169 169 173 190 212 244 271
359 7 330 314 323 318 46 256 183 164 251 206 235 199 245 286 194 253 178 199 263 99 261 144 232 271 250 143 124 131 130 132 124 143 179 184 177 183 184 197 210 231 282 285
314 291 303 302 329 42 161 239 176 196 231 209 200 228 200 281 140 108 337 298 46 242 286 86 240 265 102 120 121 131 137 124 123 136 165 211 202 194 183 200 230 258 298 317
316 229 262 88 256 60 210 240 278 270 233 231 284 322 97 336 43 41 42 46 245 335 339 229 220 193 143 148 140 127 129 116 112 127 95 150 181 188 194 216 247 286 314 330
297 278 305 192 218 237 205 248 237 273 259 181 100 23 75 342 360 13 264 253 70 281 264 242 208 192 169 177 164 155 156 128 129 124 253 196 188 210 230 239 260 289 320 328
271 276 244 237 260 276 312 334 323 29 75 43 58 38 103 249 165 246 321 260 243 223 241 246 168 158 159 173 176 147 143 138 53 339 223 251 252 244 252 263 271 286 322 312
236 238 266 255 293 309 348 353 335 324 172 52 74 1 27 288 305 279 226 228 223 269 257 331 120 176 168 156 141 143 140 118 27 344 309 294 277 277 278 286 265 330 325 321
235 252 227 243 255 226 235 289 269 271 100 203 121 232 236 164 191 257 272 247 283 339 291 179 149 179 166 146 139 131 85 49 16 355 350 340 344 350 5 345 313 311 295 168